Everett, WA

2:26 AM PDT on April 24, 2018 (GMT -0700)
Snohomish County

Weather History for KPAE - January, 2013

Change the Weather History Date:

Wednesday, January 9, 2013

  Actual Average Record
Temperature  
Mean Temperature 42 °F -  
Max Temperature 50 °F 44 °F 55 °F (1953)
Min Temperature 33 °F 32 °F 12 °F (1973)
Degree Days  
Heating Degree Days 24    
Moisture  
Dew Point 36 °F    
Average Humidity 90    
Maximum Humidity 93    
Minimum Humidity 85    
Precipitation  
Precipitation 1.07 in - - ()
Sea Level Pressure  
Sea Level Pressure 29.80 in    
Wind  
Wind Speed 9 mph (SSE)    
Max Wind Speed 24 mph    
Max Gust Speed 41 mph    
Visibility 6 miles    
Events Fog , Rain , Snow    
Averages and records for this station are not official NWS values.
T = Trace of Precipitation, MM = Missing Value Source: NWS Daily Summary

Daily Weather History Graph

Daily Weather History Graph

Search for Another Location

Airport or City:

Astronomy

Jan. 09, 2013 Rise Set
Actual Time 7:56 AM PST 4:36 PM PST
Civil Twilight 7:21 AM PST 5:11 PM PST
Nautical Twilight 6:42 AM PST 5:50 PM PST
Astronomical Twilight 6:05 AM PST 6:28 PM PST
Moon 5:42 AM PST (1/9) 2:43 PM PST (1/9)
Length of Visible Light 9h 50m
Length of Day
8h 39m
Waning Crescent, 6% of the Moon is Illuminated
Jan 9
Waning Crescent
Jan 11
New
Jan 18
First Quarter
Jan 26
Full
Feb 3
Last Quarter

Hourly Weather History & Observations

Time (PST) Temp. Windchill Dew Point Humidity Pressure Visibility Wind Dir Wind Speed Gust Speed Precip Events Conditions
12:53 AM 50.0 °F - 46.0 °F 86% 29.72 in 7.0 mi South 24.2 mph 41.4 mph 0.07 in Rain Light Rain
1:53 AM 48.9 °F - 45.0 °F 86% 29.73 in 10.0 mi South 20.7 mph 27.6 mph 0.05 in Rain Light Rain
2:53 AM 46.9 °F - 43.0 °F 86% 29.73 in 9.0 mi SSW 13.8 mph - 0.08 in Rain Light Rain
3:53 AM 45.0 °F 40.1 °F 41.0 °F 86% 29.71 in 6.0 mi South 9.2 mph - 0.08 in Rain Light Rain
4:15 AM 44.6 °F 42.2 °F 41.0 °F 87% 29.70 in 5.0 mi SW 4.6 mph - 0.03 in Rain Rain
4:26 AM 44.6 °F 41.4 °F 42.8 °F 93% 29.70 in 5.0 mi SW 5.8 mph - 0.05 in Rain Light Rain
4:53 AM 44.1 °F 40.8 °F 41.0 °F 89% 29.69 in 6.0 mi SSW 5.8 mph - 0.10 in Rain Light Rain
5:01 AM 42.8 °F 39.3 °F 41.0 °F 93% 29.68 in 5.0 mi SSW 5.8 mph - N/A Rain Light Rain
5:50 AM 42.8 °F 40.1 °F 41.0 °F 93% 29.66 in 8.0 mi ENE 4.6 mph - 0.10 in Rain Light Rain
5:53 AM 43.0 °F - 41.0 °F 93% 29.67 in 8.0 mi Calm Calm - 0.11 in Rain Light Rain
6:42 AM 42.8 °F 41.1 °F 41.0 °F 93% 29.67 in 6.0 mi NNE 3.5 mph - 0.09 in Rain Light Rain
6:49 AM 42.8 °F - 41.0 °F 93% 29.67 in 5.0 mi Calm Calm - 0.10 in Rain Light Rain
6:53 AM 43.0 °F - 41.0 °F 93% 29.68 in 5.0 mi Calm Calm - 0.11 in Rain Light Rain
7:53 AM 42.1 °F 37.7 °F 37.9 °F 85% 29.71 in 9.0 mi South 6.9 mph - 0.08 in Rain Light Rain
8:29 AM 41.0 °F 36.4 °F 39.2 °F 93% 29.71 in 10.0 mi SSE 6.9 mph - 0.02 in Rain Light Rain
8:35 AM 41.0 °F 38.0 °F 39.2 °F 93% 29.72 in 8.0 mi South 4.6 mph - 0.02 in Rain Light Rain
8:53 AM 41.0 °F 37.1 °F 37.4 °F 87% 29.72 in 5.0 mi South 5.8 mph - N/A Rain Light Rain
10:08 AM 39.2 °F 33.0 °F 35.6 °F 87% 29.74 in 2.0 mi South 9.2 mph - 0.00 in Rain Light Rain
10:15 AM 39.2 °F 33.6 °F 35.6 °F 87% 29.74 in 3.0 mi South 8.1 mph - 0.00 in Rain Light Rain
10:53 AM 37.9 °F 30.9 °F 35.1 °F 89% 29.76 in 6.0 mi SSE 10.4 mph - 0.00 in   Overcast
11:53 AM 37.9 °F 30.9 °F 36.0 °F 93% 29.76 in 3.0 mi South 10.4 mph - 0.01 in   Overcast
12:53 PM 39.0 °F 34.8 °F 37.0 °F 93% 29.76 in 9.0 mi SSE 5.8 mph - 0.02 in   Overcast
1:43 PM 37.4 °F 32.8 °F 35.6 °F 93% 29.77 in 0.2 mi East 5.8 mph - N/A Fog Fog
1:53 PM 37.9 °F 34.4 °F 36.0 °F 93% 29.78 in 0.2 mi ESE 4.6 mph - N/A Fog Fog
2:27 PM 35.6 °F 32.8 °F 33.8 °F 93% 29.79 in 2.0 mi ENE 3.5 mph - 0.05 in Rain Light Rain
2:53 PM 37.0 °F 34.5 °F 34.0 °F 89% 29.81 in 2.0 mi Variable 3.5 mph - 0.09 in Rain Light Rain
3:00 PM 37.4 °F - 33.8 °F 87% 29.80 in 3.0 mi Calm Calm - 0.00 in Rain Light Rain
3:53 PM 37.9 °F - 35.1 °F 89% 29.83 in 5.0 mi Calm Calm - 0.03 in Rain Light Rain
4:53 PM 37.0 °F - 33.1 °F 86% 29.85 in 8.0 mi Calm Calm - 0.07 in Rain Light Rain
5:53 PM 34.0 °F 28.0 °F 32.0 °F 92% 29.88 in 5.0 mi SSE 6.9 mph - 0.02 in Snow Light Snow
5:56 PM 33.8 °F 26.4 °F 32.0 °F 93% 29.86 in 1.8 mi SSE 9.2 mph - N/A Snow Light Snow
6:00 PM 33.8 °F 26.4 °F 32.0 °F 93% 29.87 in 2.0 mi SSE 9.2 mph - 0.01 in Snow Light Snow
6:34 PM 35.6 °F 29.9 °F 33.8 °F 93% 29.88 in 2.0 mi East 6.9 mph - 0.04 in Rain Light Freezing Rain
6:40 PM 33.8 °F 27.7 °F 32.0 °F 93% 29.88 in 2.0 mi SSE 6.9 mph - 0.05 in Snow Light Snow
6:53 PM 34.0 °F 26.6 °F 32.0 °F 92% 29.90 in 2.0 mi ESE 9.2 mph - 0.07 in Snow Light Snow
7:16 PM 35.6 °F 31.7 °F 32.0 °F 87% 29.88 in 4.0 mi Variable 4.6 mph - 0.02 in Snow Light Snow
7:36 PM 33.8 °F 28.6 °F 32.0 °F 93% 29.89 in 1.8 mi Variable 5.8 mph - 0.03 in Snow Light Snow
7:53 PM 34.0 °F 29.8 °F 32.0 °F 92% 29.91 in 1.5 mi Variable 4.6 mph - 0.05 in Snow Light Snow
8:34 PM 33.8 °F 29.6 °F 32.0 °F 93% 29.90 in 3.0 mi Variable 4.6 mph - 0.03 in Snow Light Snow
8:42 PM 33.8 °F 28.6 °F 32.0 °F 93% 29.90 in 7.0 mi Variable 5.8 mph - 0.03 in   Overcast
8:53 PM 34.0 °F 28.0 °F 32.0 °F 92% 29.92 in 10.0 mi Variable 6.9 mph - 0.03 in   Overcast
9:53 PM 34.0 °F 26.0 °F 32.0 °F 92% 29.94 in 10.0 mi SSE 10.4 mph - N/A   Overcast
10:51 PM 35.6 °F 32.8 °F 32.0 °F 87% 29.93 in 10.0 mi ESE 3.5 mph - 0.00 in   Mostly Cloudy
10:53 PM 35.1 °F 30.1 °F 32.0 °F 89% 29.95 in 10.0 mi SE 5.8 mph - 0.00 in   Mostly Cloudy
11:42 PM 35.6 °F 29.2 °F 32.0 °F 87% 29.93 in 10.0 mi SSE 8.1 mph - N/A   Scattered Clouds
11:53 PM 36.0 °F 33.3 °F 32.0 °F 86% 29.94 in 10.0 mi Variable 3.5 mph - N/A   Clear